DW4554 Weather Reports


time (UTC)temp
C
wind
direction
speed
KPH
gust
KPH
rain 1hr
cm
rain 24hr
cm
rain mn
cm
humidity
%
barometer
mb
20260906105404 20 306 4.8 14.5 0.00 0.00 0.00 49 1024.5
20260906104905 20 305 9.7 20.9 0.00 0.00 0.00 49 1024.5
20260906104405 20 285 8.0 16.1 0.00 0.00 0.00 50 1024.3
20260906103905 20 249 8.0 19.3 0.00 0.00 0.00 50 1024.2
20260906103404 20 243 4.8 19.3 0.00 0.00 0.00 50 1024.2
20260906102904 20 248 12.9 24.1 0.00 0.00 0.00 49 1024.2
20260906102405 20 263 8.0 16.1 0.00 0.00 0.00 49 1024.3
20260906101904 20 295 9.7 14.5 0.00 0.00 0.00 49 1024.3
20260906101404 20 248 8.0 19.3 0.00 0.00 0.00 52 1024.3
20260906100905 20 257 9.7 27.4 0.00 0.00 0.00 51 1024.3
20260906100404 20 277 8.0 25.7 0.00 0.00 0.00 52 1024.2
20260906095406 19 270 8.0 19.3 0.00 0.00 0.00 52 1024.3
20260906094905 19 242 4.8 19.3 0.00 0.00 0.00 52 1024.3
20260906093904 19 268 9.7 19.3 0.00 0.00 0.00 54 1024.4
20260906092904 19 271 6.4 19.3 0.00 0.00 0.00 56 1024.3
20260906092405 19 230 8.0 19.3 0.00 0.00 0.00 56 1024.2
20260906091904 18 257 8.0 19.3 0.00 0.00 0.00 55 1024.2
20260906091404 18 290 9.7 24.1 0.00 0.00 0.00 56 1024.2
20260906090904 18 300 11.3 25.7 0.00 0.00 0.00 57 1024.2
20260906090404 18 301 11.3 24.1 0.00 0.00 0.00 60 1024.2
20260906085904 18 261 8.0 16.1 0.00 0.00 0.00 60 1024.4
20260906085405 18 276 11.3 19.3 0.00 0.00 0.00 59 1024.4
20260906084404 18 257 8.0 19.3 0.00 0.00 0.00 59 1024.2
20260906083904 18 244 8.0 19.3 0.00 0.00 0.00 60 1024.2
20260906083404 18 271 4.8 19.3 0.00 0.00 0.00 59 1024.1
20260906082904 18 286 4.8 16.1 0.00 0.00 0.00 60 1024.0
20260906082404 18 281 8.0 16.1 0.00 0.00 0.00 60 1024.0
20260906081904 18 271 9.7 16.1 0.00 0.00 0.00 60 1023.9
20260906081404 17 294 11.3 22.5 0.00 0.00 0.00 62 1023.9
20260906080904 17 276 8.0 16.1 0.00 0.00 0.00 63 1024.0
20260906080404 17 292 4.8 12.9 0.00 0.00 0.00 64 1023.9
20260906075904 17 244 6.4 14.5 0.00 0.00 0.00 64 1023.9
20260906075405 17 251 4.8 20.9 0.00 0.00 0.00 65 1023.8
20260906074904 17 277 8.0 16.1 0.00 0.00 0.00 65 1023.7
20260906074405 17 295 8.0 19.3 0.00 0.00 0.00 66 1023.7
20260906073904 17 289 8.0 16.1 0.00 0.00 0.00 67 1023.8
20260906073404 17 298 8.0 19.3 0.00 0.00 0.00 68 1023.8
20260906072404 16 292 8.0 20.9 0.00 0.00 0.00 72 1023.7
20260906071905 16 284 6.4 16.1 0.00 0.03 0.00 74 1023.6
20260906071404 16 246 8.0 16.1 0.00 0.03 0.00 75 1023.5
20260906070905 15 223 9.7 19.3 0.00 0.03 0.00 77 1023.5
20260906070404 15 251 4.8 14.5 0.00 0.03 0.00 78 1023.6
20260906065904 15 232 9.7 14.5 0.00 0.03 0.00 80 1023.6
20260906065405 14 287 3.2 11.3 0.00 0.03 0.00 81 1023.6
20260906064905 14 275 3.2 8.0 0.00 0.05 0.00 81 1023.5
20260906064404 13 240 3.2 12.9 0.00 0.05 0.00 82 1023.6
20260906063904 13 261 4.8 11.3 0.00 0.05 0.00 84 1023.5
20260906063404 13 236 4.8 12.9 0.00 0.05 0.00 84 1023.3
20260906061904 12 219 3.2 4.8 0.00 0.05 0.00 86 1023.2
20260906061404 12 220 3.2 8.0 0.00 0.05 0.00 86 1023.2
20260906060404 12 232 1.6 4.8 0.00 0.05 0.00 87 1023.1
20260906055904 12 232 3.2 4.8 0.00 0.05 0.00 88 1023.1
20260906055405 11 232 3.2 8.0 0.00 0.05 0.00 88 1023.1
20260906054904 11 212 1.6 4.8 0.00 0.08 0.00 88 1023.1
20260906054404 11 213 3.2 8.0 0.00 0.08 0.00 88 1023.0
20260906053905 11 231 3.2 4.8 0.00 0.08 0.00 88 1022.9
20260906053404 11 232 1.6 8.0 0.00 0.08 0.00 88 1022.9
20260906052904 11 231 1.6 4.8 0.00 0.08 0.00 88 1022.8
20260906052404 11 231 0.0 0.0 0.00 0.08 0.00 87 1022.8
20260906051904 11 231 0.0 0.0 0.00 0.10 0.00 86 1022.7
20260906050904 11 231 0.0 0.0 0.00 0.10 0.00 85 1022.7
20260906050405 11 231 0.0 0.0 0.00 0.10 0.00 85 1022.5
20260906045404 11 231 0.0 0.0 0.00 0.10 0.00 85 1022.4
20260906043404 11 231 0.0 0.0 0.00 0.10 0.00 84 1022.3
20260906042904 11 231 0.0 0.0 0.00 0.10 0.00 84 1022.3
20260906042404 11 231 0.0 3.2 0.00 0.10 0.00 83 1022.3
20260906041904 11 231 1.6 4.8 0.00 0.10 0.00 83 1022.2
20260906041405 11 231 1.6 4.8 0.00 0.10 0.00 82 1022.1
20260906040904 11 232 0.0 3.2 0.00 0.10 0.00 82 1022.1
20260906035904 11 232 1.6 3.2 0.00 0.10 0.00 81 1022.0
20260906035405 11 236 0.0 4.8 0.00 0.10 0.00 81 1021.9
20260906034904 11 236 0.0 0.0 0.00 0.10 0.00 81 1021.8
20260906034404 12 236 0.0 3.2 0.00 0.10 0.00 81 1021.8
20260906033904 12 236 1.6 3.2 0.00 0.10 0.00 81 1021.8
20260906032905 12 236 0.0 0.0 0.00 0.10 0.00 80 1021.7
20260906032404 12 236 1.6 3.2 0.00 0.10 0.00 80 1021.7
20260906030904 12 236 0.0 1.6 0.00 0.10 0.00 79 1021.6
20260906030404 12 236 0.0 1.6 0.00 0.10 0.00 78 1021.4
20260906025404 12 236 0.0 3.2 0.00 0.10 0.00 78 1021.3
20260906024904 13 236 0.0 3.2 0.00 0.10 0.00 77 1021.4
20260906024404 13 236 1.6 3.2 0.00 0.10 0.00 77 1021.4
20260906023904 13 236 0.0 0.0 0.00 0.10 0.00 77 1021.3
20260906023404 13 236 0.0 0.0 0.00 0.10 0.00 76 1021.3
20260906022905 13 236 0.0 0.0 0.00 0.10 0.00 76 1021.3
20260906022404 13 236 0.0 3.2 0.00 0.10 0.00 76 1021.3
20260906021904 13 236 1.6 3.2 0.00 0.10 0.00 76 1021.2
20260906021405 13 236 0.0 0.0 0.00 0.10 0.00 75 1021.3
20260906020904 13 236 0.0 0.0 0.00 0.10 0.00 75 1021.2
20260906020404 13 236 0.0 0.0 0.00 0.10 0.00 75 1021.2
20260906015904 13 236 0.0 0.0 0.00 0.10 0.00 75 1021.1
20260906015404 13 236 0.0 3.2 0.00 0.10 0.00 75 1021.1
20260906014904 13 236 0.0 1.6 0.00 0.10 0.00 74 1021.0
20260906014404 13 236 1.6 4.8 0.00 0.10 0.00 74 1021.0
20260906013904 13 236 3.2 8.0 0.00 0.10 0.00 74 1020.9
20260906013404 13 236 3.2 8.0 0.00 0.10 0.00 73 1020.9
20260906012904 13 228 1.6 4.8 0.00 0.10 0.00 73 1020.8
20260906011904 13 227 1.6 4.8 0.00 0.10 0.00 73 1020.7
20260906011404 13 227 3.2 8.0 0.00 0.10 0.00 73 1020.6
20260906010904 13 215 0.0 3.2 0.00 0.10 0.00 73 1020.7
20260906010405 13 215 3.2 4.8 0.00 0.10 0.00 73 1020.7
20260906005904 13 215 3.2 8.0 0.00 0.10 0.00 73 1020.6
20260906004904 13 236 1.6 4.8 0.00 0.10 0.00 72 1020.5
20260906004404 13 236 3.2 4.8 0.00 0.10 0.00 72 1020.4
20260906003905 14 236 0.0 4.8 0.00 0.10 0.00 72 1020.3
20260906003404 14 236 1.6 4.8 0.00 0.10 0.00 72 1020.2
20260906002904 14 236 1.6 4.8 0.00 0.10 0.00 72 1020.3
20260906002405 14 236 1.6 4.8 0.00 0.10 0.00 72 1020.3
20260906001904 14 236 3.2 4.8 0.00 0.10 0.00 72 1020.3
20260906001405 14 236 3.2 8.0 0.00 0.10 0.00 72 1020.3
20260906000905 14 236 1.6 4.8 0.00 0.10 0.00 72 1020.3
20260906000405 14 235 4.8 8.0 0.00 0.10 0.00 72 1020.2
20260905235905 14 216 3.2 4.8 0.00 0.10 0.00 72 1020.2
20260905235405 14 219 4.8 9.7 0.00 0.10 0.00 72 1020.1
20260905234904 14 244 8.0 11.3 0.00 0.10 0.00 72 1020.2
20260905234404 14 238 4.8 8.0 0.00 0.10 0.00 72 1020.1
20260905233904 14 234 3.2 4.8 0.00 0.10 0.00 72 1020.1
20260905232905 15 234 1.6 4.8 0.00 0.10 0.00 71 1020.0
20260905232404 15 234 3.2 4.8 0.00 0.10 0.00 71 1019.9
20260905231904 15 234 3.2 4.8 0.00 0.10 0.00 71 1019.9
20260905230904 15 234 0.0 3.2 0.00 0.10 0.00 70 1019.9
20260905230404 15 234 0.0 0.0 0.00 0.10 0.00 69 1019.9
20260905225404 15 234 0.0 0.0 0.00 0.10 0.00 68 1019.9
20260905224905 15 234 0.0 0.0 0.00 0.10 0.00 68 1019.9
20260905223905 16 234 0.0 1.6 0.00 0.10 0.00 67 1019.8
20260905223405 16 234 0.0 1.6 0.00 0.10 0.00 67 1019.7
20260905222905 16 234 0.0 0.0 0.00 0.10 0.00 67 1019.7
20260905222404 16 234 0.0 1.6 0.00 0.10 0.00 66 1019.7
20260905221404 16 234 0.0 3.2 0.00 0.10 0.00 65 1019.6
20260905220404 16 234 0.0 1.6 0.00 0.10 0.00 65 1019.6
20260905215905 17 234 0.0 3.2 0.00 0.10 0.10 65 1019.6
20260905215404 17 234 1.6 3.2 0.00 0.10 0.10 65 1019.5
20260905214905 17 234 0.0 3.2 0.00 0.10 0.10 65 1019.4
20260905213904 17 234 1.6 4.8 0.00 0.10 0.10 65 1019.3
20260905213404 17 234 1.6 4.8 0.00 0.10 0.10 65 1019.3
20260905212904 17 234 3.2 4.8 0.00 0.10 0.10 65 1019.2
20260905212405 17 231 4.8 8.0 0.00 0.10 0.10 65 1019.1
20260905211904 17 251 4.8 11.3 0.00 0.10 0.10 65 1019.0
20260905211404 17 241 3.2 8.0 0.00 0.10 0.10 65 1019.0
20260905210904 17 237 4.8 8.0 0.00 0.10 0.10 66 1019.0
20260905210404 17 232 3.2 8.0 0.00 0.10 0.10 67 1019.0
20260905205904 17 222 3.2 4.8 0.00 0.10 0.10 67 1018.9
20260905204904 17 222 3.2 9.7 0.00 0.10 0.10 67 1018.8
20260905204404 17 243 3.2 9.7 0.00 0.10 0.10 67 1018.8
20260905203904 17 233 1.6 4.8 0.00 0.10 0.10 67 1018.7
20260905203404 17 233 0.0 1.6 0.00 0.10 0.10 68 1018.8
20260905202906 17 233 1.6 3.2 0.00 0.10 0.10 68 1018.8
20260905202404 17 233 0.0 4.8 0.00 0.10 0.10 68 1018.7
20260905200904 17 233 0.0 0.0 0.00 0.10 0.10 66 1018.6
20260905200405 17 233 0.0 0.0 0.00 0.10 0.10 66 1018.6
20260905195404 17 233 0.0 0.0 0.00 0.10 0.10 65 1018.6
20260905194904 18 233 0.0 0.0 0.00 0.10 0.10 64 1018.5
20260905194404 18 233 0.0 0.0 0.00 0.10 0.10 64 1018.5
20260905193904 18 233 0.0 1.6 0.00 0.10 0.10 63 1018.3
20260905192904 18 233 0.0 0.0 0.00 0.10 0.10 62 1018.3
20260905192405 18 233 0.0 3.2 0.00 0.10 0.10 62 1018.3
20260905191904 18 233 0.0 3.2 0.00 0.10 0.10 62 1018.3
20260905191404 18 233 0.0 1.6 0.00 0.10 0.10 61 1018.3
20260905190905 18 233 0.0 3.2 0.00 0.10 0.10 61 1018.3
20260905190404 18 233 0.0 3.2 0.00 0.10 0.10 60 1018.2
20260905185904 19 233 0.0 1.6 0.00 0.10 0.10 60 1018.1
20260905185404 19 233 0.0 1.6 0.00 0.10 0.10 59 1017.9
20260905184404 19 233 1.6 3.2 0.00 0.10 0.10 59 1017.8
20260905183906 20 233 1.6 3.2 0.00 0.10 0.10 58 1017.7
20260905183404 20 233 0.0 3.2 0.00 0.10 0.10 57 1017.6
20260905182904 20 233 0.0 3.2 0.00 0.10 0.10 56 1017.5
20260905182404 20 233 1.6 4.8 0.00 0.10 0.10 56 1017.4
20260905181904 20 233 1.6 4.8 0.00 0.10 0.10 55 1017.4
20260905181404 20 233 1.6 3.2 0.00 0.10 0.10 54 1017.3
20260905180405 20 233 1.6 3.2 0.00 0.10 0.10 53 1017.2
20260905175904 21 233 1.6 4.8 0.00 0.10 0.10 53 1017.1
20260905175404 21 250 1.6 4.8 0.00 0.10 0.10 52 1017.1
20260905174904 21 266 0.0 3.2 0.00 0.10 0.10 52 1017.0
20260905173905 21 262 1.6 4.8 0.00 0.10 0.10 51 1016.8
20260905172904 21 246 0.0 4.8 0.00 0.10 0.10 50 1016.7
20260905171904 21 244 3.2 8.0 0.00 0.10 0.10 49 1016.6
20260905171404 22 233 3.2 4.8 0.00 0.10 0.10 49 1016.5
20260905170904 22 229 3.2 12.9 0.00 0.10 0.10 48 1016.4
20260905170404 22 243 4.8 12.9 0.00 0.10 0.10 48 1016.3
20260905165904 22 237 4.8 12.9 0.00 0.10 0.10 47 1016.3
20260905165404 22 235 8.0 16.1 0.00 0.10 0.10 47 1016.3
20260905164404 22 238 3.2 11.3 0.00 0.10 0.10 46 1016.1
20260905163904 23 221 4.8 19.3 0.00 0.10 0.10 45 1016.1
20260905163405 23 250 8.0 19.3 0.00 0.10 0.10 45 1016.0
20260905162904 23 250 8.0 20.9 0.00 0.10 0.10 44 1016.0
20260905162405 23 251 6.4 20.9 0.00 0.10 0.10 44 1015.9
20260905161905 23 276 8.0 16.1 0.00 0.10 0.10 43 1015.8
20260905161404 23 241 4.8 16.1 0.00 0.10 0.10 43 1015.8
20260905160905 23 251 9.7 20.9 0.00 0.10 0.10 42 1015.8
20260905160404 24 233 4.8 12.9 0.00 0.10 0.10 42 1015.7
20260905155904 24 254 8.0 20.9 0.00 0.10 0.10 41 1015.6
20260905155404 24 242 9.7 24.1 0.00 0.10 0.10 41 1015.5
20260905154904 25 241 4.8 19.3 0.00 0.10 0.10 41 1015.5
20260905154404 25 264 9.7 22.5 0.00 0.10 0.10 40 1015.4
20260905153904 25 255 9.7 24.1 0.00 0.10 0.10 39 1015.4
20260905152904 25 244 8.0 19.3 0.00 0.10 0.10 40 1015.4
20260905152404 25 276 6.4 16.1 0.00 0.10 0.10 41 1015.4
20260905151904 25 256 8.0 24.1 0.00 0.10 0.10 40 1015.3
20260905151404 25 276 8.0 20.9 0.00 0.10 0.10 40 1015.3
20260905150904 26 281 9.7 22.5 0.00 0.10 0.10 39 1015.3
20260905150404 26 248 8.0 22.5 0.00 0.10 0.10 39 1015.2
20260905145905 26 246 9.7 20.9 0.00 0.10 0.10 39 1015.3
20260905144904 26 313 3.2 16.1 0.00 0.10 0.10 40 1015.2
20260905143904 26 281 11.3 19.3 0.00 0.10 0.10 39 1015.3
20260905143404 26 264 4.8 19.3 0.00 0.10 0.10 41 1015.3
20260905142904 26 248 8.0 20.9 0.00 0.10 0.10 40 1015.3
20260905142404 26 242 11.3 20.9 0.00 0.10 0.10 40 1015.3
20260905141404 26 244 16.1 35.4 0.00 0.10 0.10 40 1015.5
20260905140904 26 240 11.3 24.1 0.00 0.10 0.10 39 1015.4
20260905140406 26 263 8.0 20.9 0.00 0.10 0.10 40 1015.5
20260905135904 26 234 8.0 19.3 0.00 0.10 0.10 41 1015.5
20260905135404 26 239 4.8 25.7 0.00 0.10 0.10 40 1015.5
20260905134904 26 290 6.4 29.0 0.00 0.10 0.10 41 1015.5
20260905134404 26 249 6.4 19.3 0.00 0.10 0.10 41 1015.5
20260905133904 26 269 11.3 20.9 0.00 0.10 0.10 42 1015.5
20260905133404 25 250 11.3 25.7 0.00 0.10 0.10 42 1015.4
20260905132904 25 249 11.3 32.2 0.00 0.10 0.10 43 1015.3
20260905131404 25 237 9.7 29.0 0.00 0.10 0.10 46 1015.5
20260905130905 25 248 11.3 22.5 0.00 0.10 0.10 46 1015.5
20260905130405 24 234 8.0 24.1 0.00 0.10 0.10 48 1015.5
20260905125904 24 227 11.3 27.4 0.00 0.10 0.10 48 1015.4
20260905125404 24 262 8.0 14.5 0.00 0.10 0.10 49 1015.5
20260905124904 23 227 8.0 20.9 0.00 0.10 0.10 49 1015.4
20260905124404 23 261 14.5 27.4 0.00 0.10 0.10 48 1015.5
20260905123905 23 239 14.5 29.0 0.00 0.10 0.10 50 1015.6
20260905123404 23 249 12.9 22.5 0.00 0.10 0.10 49 1015.7
20260905122404 23 239 9.7 24.1 0.00 0.10 0.10 52 1015.7
20260905121904 23 234 3.2 19.3 0.00 0.10 0.10 54 1015.8
20260905120905 22 258 3.2 19.3 0.00 0.10 0.10 57 1015.9
20260905120404 22 230 8.0 20.9 0.00 0.10 0.10 57 1015.9
20260905115904 22 226 4.8 19.3 0.00 0.10 0.10 61 1015.9
20260905115404 22 210 6.4 16.1 0.00 0.10 0.10 59 1016.1
20260905114904 22 234 4.8 16.1 0.00 0.10 0.10 60 1016.1
20260905114404 22 277 6.4 14.5 0.00 0.10 0.10 60 1016.1
20260905113904 22 227 4.8 12.9 0.00 0.10 0.10 61 1016.2
20260905113404 21 262 8.0 14.5 0.00 0.10 0.10 62 1016.3
20260905112904 21 244 4.8 9.7 0.00 0.10 0.10 63 1016.2
20260905112405 21 241 4.8 12.9 0.00 0.10 0.10 62 1016.3
20260905111904 21 241 4.8 12.9 0.00 0.10 0.10 64 1016.3
20260905111405 21 234 8.0 19.3 0.00 0.10 0.10 64 1016.2
20260905110904 21 295 4.8 14.5 0.00 0.10 0.10 66 1016.2
20260905105905 20 222 4.8 14.5 0.00 0.10 0.10 66 1016.4